| time (UTC) | temp F | wind direction | speed MPH | gust MPH | rain 1hr in | rain 24hr in | rain mn in | humidity % | barometer mb |
| 20260509151535 | 44 | 0.0 | 0.0 | 0.00 | 0.00 | 0.00 | 1 | 1007.9 | |
| 20260509150030 | 44 | 0.0 | 0.0 | 0.00 | 0.00 | 0.00 | 1 | 1008.1 | |
| 20260509144533 | 44 | 0.0 | 0.0 | 0.00 | 0.00 | 0.00 | 1 | 1008.2 | |
| 20260509143024 | 44 | 0.0 | 0.0 | 0.00 | 0.00 | 0.00 | 1 | 1007.9 | |
| 20260509141521 | 44 | 0.0 | 0.0 | 0.00 | 0.00 | 0.00 | 1 | 1008.0 | |
| 20260509140009 | 44 | 0.0 | 0.0 | 0.00 | 0.00 | 0.00 | 1 | 1008.0 | |
| 20260509134506 | 43 | 0.0 | 0.0 | 0.00 | 0.00 | 0.00 | 1 | 1008.0 | |
| 20260509133059 | 43 | 0.0 | 0.0 | 0.00 | 0.00 | 0.00 | 1 | 1008.1 | |
| 20260509131555 | 43 | 0.0 | 0.0 | 0.00 | 0.00 | 0.00 | 1 | 1008.2 | |
| 20260509130057 | 43 | 0.0 | 0.0 | 0.00 | 0.00 | 0.00 | 1 | 1008.2 | |
| 20260509124603 | 42 | 0.0 | 0.0 | 0.00 | 0.00 | 0.00 | 1 | 1008.3 | |
| 20260509123012 | 42 | 0.0 | 0.0 | 0.00 | 0.00 | 0.00 | 1 | 1008.2 | |
| 20260509121517 | 43 | 0.0 | 0.0 | 0.00 | 0.00 | 0.00 | 1 | 1008.4 | |
| 20260509120108 | 43 | 0.0 | 0.0 | 0.00 | 0.00 | 0.00 | 14 | 1008.4 | |
| 20260509114603 | 43 | 0.0 | 0.0 | 0.00 | 0.00 | 0.00 | 27 | 1008.6 | |
| 20260509113052 | 44 | 0.0 | 0.0 | 0.00 | 0.00 | 0.00 | 37 | 1008.7 | |
| 20260509111547 | 43 | 0.0 | 0.0 | 0.00 | 0.00 | 0.00 | 40 | 1008.5 | |
| 20260509110040 | 43 | 0.0 | 0.0 | 0.00 | 0.00 | 0.00 | 41 | 1008.4 | |
| 20260509104538 | 42 | 0.0 | 0.0 | 0.00 | 0.00 | 0.00 | 43 | 1008.2 | |
| 20260509103032 | 41 | 0.0 | 0.0 | 0.00 | 0.00 | 0.00 | 40 | 1008.0 | |
| 20260509101527 | 41 | 0.0 | 0.0 | 0.00 | 0.00 | 0.00 | 45 | 1008.0 | |
| 20260509100030 | 40 | 0.0 | 0.0 | 0.00 | 0.00 | 0.00 | 45 | 1008.5 | |
| 20260509094521 | 40 | 0.0 | 0.0 | 0.00 | 0.00 | 0.00 | 44 | 1008.4 | |
| 20260509093012 | 40 | 0.0 | 0.0 | 0.00 | 0.00 | 0.00 | 39 | 1008.4 | |
| 20260509091507 | 39 | 0.0 | 0.0 | 0.00 | 0.00 | 0.00 | 36 | 1008.7 | |
| 20260509090108 | 38 | 0.0 | 0.0 | 0.00 | 0.00 | 0.00 | 26 | 1008.6 | |
| 20260509084600 | 38 | 0.0 | 0.0 | 0.00 | 0.00 | 0.00 | 14 | 1008.7 | |
| 20260509083051 | 37 | 0.0 | 0.0 | 0.00 | 0.00 | 0.00 | 1 | 1008.6 | |
| 20260509081549 | 37 | 0.0 | 0.0 | 0.00 | 0.00 | 0.00 | 1 | 1008.6 | |
| 20260509080043 | 37 | 0.0 | 0.0 | 0.00 | 0.00 | 0.00 | 1 | 1008.4 | |
| 20260509074538 | 37 | 0.0 | 0.0 | 0.00 | 0.00 | 0.00 | 10 | 1008.4 | |
| 20260509073032 | 37 | 0.0 | 0.0 | 0.00 | 0.00 | 0.00 | 20 | 1008.4 | |
| 20260509071528 | 38 | 0.0 | 0.0 | 0.00 | 0.00 | 0.00 | 32 | 1008.2 | |
| 20260509070025 | 38 | 0.0 | 0.0 | 0.00 | 0.00 | 0.00 | 45 | 1008.2 | |
| 20260509064522 | 39 | 0.0 | 0.0 | 0.00 | 0.00 | 0.00 | 47 | 1008.4 | |
| 20260509063020 | 39 | 0.0 | 0.0 | 0.00 | 0.00 | 0.00 | 45 | 1008.5 | |
| 20260509061519 | 40 | 0.0 | 0.0 | 0.00 | 0.00 | 0.00 | 46 | 1008.7 | |
| 20260509060018 | 41 | 0.0 | 0.0 | 0.00 | 0.00 | 0.00 | 52 | 1008.9 | |
| 20260509054521 | 41 | 0.0 | 0.0 | 0.00 | 0.00 | 0.00 | 62 | 1008.9 | |
| 20260509053016 | 42 | 0.0 | 0.0 | 0.00 | 0.00 | 0.00 | 61 | 1008.9 | |
| 20260509051522 | 42 | 0.0 | 0.0 | 0.00 | 0.00 | 0.00 | 61 | 1009.1 | |
| 20260509050020 | 41 | 0.0 | 0.0 | 0.00 | 0.00 | 0.00 | 62 | 1009.1 | |
| 20260509044548 | 41 | 0.0 | 0.0 | 0.00 | 0.00 | 0.00 | 62 | 1009.2 | |
| 20260509043041 | 42 | 0.0 | 0.0 | 0.00 | 0.00 | 0.00 | 61 | 1009.1 | |
| 20260509041538 | 42 | 0.0 | 0.0 | 0.00 | 0.00 | 0.00 | 61 | 1008.8 | |
| 20260509040039 | 42 | 0.0 | 0.0 | 0.00 | 0.00 | 0.00 | 61 | 1008.7 | |
| 20260509034543 | 41 | 0.0 | 0.0 | 0.00 | 0.00 | 0.00 | 62 | 1008.8 | |
| 20260509033037 | 41 | 0.0 | 0.0 | 0.00 | 0.00 | 0.00 | 62 | 1008.7 | |
| 20260509031535 | 42 | 0.0 | 0.0 | 0.00 | 0.00 | 0.00 | 62 | 1008.7 | |
| 20260509030035 | 42 | 0.0 | 0.0 | 0.00 | 0.00 | 0.00 | 63 | 1008.8 | |
| 20260509024532 | 42 | 0.0 | 0.0 | 0.00 | 0.00 | 0.00 | 62 | 1009.0 | |
| 20260509023035 | 43 | 0.0 | 0.0 | 0.00 | 0.00 | 0.00 | 61 | 1008.9 | |
| 20260509021600 | 44 | 0.0 | 0.0 | 0.00 | 0.00 | 0.00 | 60 | 1008.8 | |
| 20260509020059 | 44 | 0.0 | 0.0 | 0.00 | 0.00 | 0.00 | 58 | 1008.6 | |
| 20260509014555 | 44 | 0.0 | 0.0 | 0.00 | 0.00 | 0.00 | 58 | 1008.5 | |
| 20260509013114 | 44 | 0.0 | 0.0 | 0.00 | 0.00 | 0.00 | 59 | 1008.3 | |
| 20260509011554 | 45 | 0.0 | 0.0 | 0.00 | 0.00 | 0.00 | 59 | 1008.2 | |
| 20260509010052 | 45 | 0.0 | 0.0 | 0.00 | 0.00 | 0.00 | 58 | 1008.0 | |
| 20260509004524 | 46 | 0.0 | 0.0 | 0.00 | 0.00 | 0.00 | 56 | 1007.7 | |
| 20260509003021 | 47 | 0.0 | 0.0 | 0.00 | 0.00 | 0.00 | 55 | 1007.5 | |
| 20260509001517 | 47 | 0.0 | 0.0 | 0.00 | 0.00 | 0.00 | 54 | 1007.3 | |
| 20260509000016 | 48 | 0.0 | 0.0 | 0.00 | 0.00 | 0.00 | 52 | 1007.2 | |
| 20260508234517 | 49 | 0.0 | 0.0 | 0.00 | 0.00 | 0.00 | 50 | 1007.2 | |
| 20260508233015 | 49 | 0.0 | 0.0 | 0.00 | 0.00 | 0.00 | 49 | 1007.1 | |
| 20260508231513 | 50 | 0.0 | 0.0 | 0.00 | 0.00 | 0.00 | 47 | 1007.0 | |
| 20260508230034 | 51 | 0.0 | 0.0 | 0.00 | 0.00 | 0.00 | 48 | 1006.9 | |
| 20260508224536 | 51 | 0.0 | 0.0 | 0.00 | 0.00 | 0.00 | 47 | 1006.8 | |
| 20260508223023 | 50 | 0.0 | 0.0 | 0.00 | 0.00 | 0.00 | 49 | 1006.8 | |
| 20260508221509 | 51 | 0.0 | 0.0 | 0.00 | 0.00 | 0.00 | 48 | 1006.7 | |
| 20260508220008 | 52 | 0.0 | 0.0 | 0.00 | 0.00 | 0.00 | 46 | 1006.6 | |
| 20260508214507 | 51 | 0.0 | 0.0 | 0.00 | 0.00 | 0.00 | 50 | 1006.6 | |
| 20260508213008 | 50 | 0.0 | 0.0 | 0.00 | 0.00 | 0.00 | 54 | 1006.8 | |
| 20260508211509 | 50 | 0.0 | 0.0 | 0.00 | 0.00 | 0.00 | 54 | 1006.9 | |
| 20260508210005 | 51 | 0.0 | 0.0 | 0.00 | 0.00 | 0.00 | 53 | 1006.6 | |
| 20260508204513 | 50 | 0.0 | 0.0 | 0.00 | 0.00 | 0.00 | 55 | 1006.8 | |
| 20260508203004 | 50 | 0.0 | 0.0 | 0.00 | 0.00 | 0.00 | 55 | 1006.6 | |
| 20260508201502 | 50 | 0.0 | 0.0 | 0.00 | 0.00 | 0.00 | 56 | 1006.5 | |
| 20260508200001 | 52 | 0.0 | 0.0 | 0.00 | 0.00 | 0.00 | 55 | 1006.6 | |
| 20260508194559 | 51 | 0.0 | 0.0 | 0.00 | 0.00 | 0.00 | 55 | 1006.7 | |
| 20260508193131 | 51 | 0.0 | 0.0 | 0.00 | 0.00 | 0.00 | 55 | 1006.6 | |
| 20260508191556 | 50 | 0.0 | 0.0 | 0.00 | 0.00 | 0.00 | 56 | 1006.6 | |
| 20260508190058 | 50 | 0.0 | 0.0 | 0.00 | 0.00 | 0.00 | 53 | 1006.7 | |
| 20260508184622 | 51 | 0.0 | 0.0 | 0.00 | 0.00 | 0.00 | 54 | 1006.8 | |
| 20260508183058 | 50 | 0.0 | 0.0 | 0.00 | 0.00 | 0.00 | 56 | 1006.9 | |
| 20260508181550 | 50 | 0.0 | 0.0 | 0.00 | 0.00 | 0.00 | 56 | 1006.9 | |
| 20260508180057 | 50 | 0.0 | 0.0 | 0.00 | 0.00 | 0.00 | 58 | 1006.8 | |
| 20260508174603 | 48 | 0.0 | 0.0 | 0.00 | 0.00 | 0.00 | 60 | 1007.0 | |
| 20260508173045 | 48 | 0.0 | 0.0 | 0.00 | 0.00 | 0.00 | 60 | 1007.1 | |
| 20260508171607 | 49 | 0.0 | 0.0 | 0.00 | 0.00 | 0.00 | 56 | 1007.2 | |
| 20260508170042 | 48 | 0.0 | 0.0 | 0.00 | 0.00 | 0.00 | 58 | 1007.4 | |
| 20260508164541 | 48 | 0.0 | 0.0 | 0.00 | 0.00 | 0.00 | 57 | 1007.3 | |
| 20260508163039 | 48 | 0.0 | 0.0 | 0.00 | 0.00 | 0.00 | 54 | 1007.3 | |
| 20260508161544 | 48 | 0.0 | 0.0 | 0.00 | 0.00 | 0.00 | 54 | 1007.3 | |
| 20260508160038 | 48 | 0.0 | 0.0 | 0.00 | 0.00 | 0.00 | 53 | 1007.3 | |
| 20260508154533 | 48 | 0.0 | 0.0 | 0.00 | 0.00 | 0.00 | 55 | 1007.4 | |
| 20260508153038 | 48 | 0.0 | 0.0 | 0.00 | 0.00 | 0.00 | 54 | 1007.3 |